Time,TemperatureF,DewpointF,PressureIn,WindDirection,WindDirectionDegrees,WindSpeedMPH,WindSpeedGustMPH,Humidity,HourlyPrecipIn,Conditions,Clouds,dailyrainin,SoftwareType,DateUTC
2013-07-21 00:02:00,66.4,57.5,29.90,North,0,2.5,2.7,73,0.00,,,0.00,WUHU216HW,2013-07-21 07:02:00,
2013-07-21 00:07:00,66.1,56.8,29.90,NNW,338,0.4,2.7,72,0.00,,,0.00,WUHU216HW,2013-07-21 07:07:00,
2013-07-21 00:12:00,65.9,57.0,29.90,North,0,1.1,2.5,73,0.00,,,0.00,WUHU216HW,2013-07-21 07:12:00,
2013-07-21 00:17:00,65.7,56.8,29.90,WSW,248,3.8,3.8,73,0.00,,,0.00,WUHU216HW,2013-07-21 07:17:00,
2013-07-21 00:22:00,65.5,56.6,29.90,NNE,23,1.1,3.8,73,0.00,,,0.00,WUHU216HW,2013-07-21 07:22:00,
2013-07-21 00:27:00,65.5,56.6,29.90,North,0,2.2,2.7,73,0.00,,,0.00,WUHU216HW,2013-07-21 07:27:00,
2013-07-21 00:32:00,65.2,56.3,29.91,NNW,338,0.4,2.7,73,0.00,,,0.00,WUHU216HW,2013-07-21 07:32:00,
2013-07-21 00:37:00,65.2,56.3,29.90,NNE,23,0.7,2.7,73,0.00,,,0.00,WUHU216HW,2013-07-21 07:37:00,
2013-07-21 00:42:00,65.0,56.2,29.91,NNE,23,2.0,2.0,73,0.00,,,0.00,WUHU216HW,2013-07-21 07:42:00,
2013-07-21 00:47:00,64.8,56.0,29.91,West,270,0.7,2.0,73,0.00,,,0.00,WUHU216HW,2013-07-21 07:47:00,
2013-07-21 00:52:00,64.6,55.8,29.91,North,0,0.4,3.1,73,0.00,,,0.00,WUHU216HW,2013-07-21 07:52:00,
2013-07-21 00:57:00,64.4,55.6,29.91,SSE,158,0.7,3.1,73,0.00,,,0.00,WUHU216HW,2013-07-21 07:57:00,
2013-07-21 01:02:00,64.3,55.4,29.90,North,0,1.6,2.0,73,0.00,,,0.00,WUHU216HW,2013-07-21 08:02:00,
2013-07-21 01:07:00,64.1,55.3,29.91,North,0,0.9,1.8,73,0.00,,,0.00,WUHU216HW,2013-07-21 08:07:00,
2013-07-21 01:12:00,63.9,55.4,29.91,North,0,0.4,1.8,74,0.00,,,0.00,WUHU216HW,2013-07-21 08:12:00,
2013-07-21 01:17:00,63.9,55.4,29.91,NNE,23,0.4,1.3,74,0.00,,,0.00,WUHU216HW,2013-07-21 08:17:00,
2013-07-21 01:22:00,63.7,55.3,29.91,NNE,23,1.6,1.6,74,0.00,,,0.00,WUHU216HW,2013-07-21 08:22:00,
2013-07-21 01:27:00,63.4,54.9,29.90,North,0,0.4,2.5,74,0.00,,,0.00,WUHU216HW,2013-07-21 08:27:00,
2013-07-21 01:32:00,63.0,54.9,29.90,NW,315,0.4,2.5,75,0.00,,,0.00,WUHU216HW,2013-07-21 08:32:00,
2013-07-21 01:37:00,62.8,55.1,29.90,North,0,0.2,2.7,76,0.00,,,0.00,WUHU216HW,2013-07-21 08:37:00,
2013-07-21 01:42:00,62.6,54.5,29.90,North,0,0.7,2.7,75,0.00,,,0.00,WUHU216HW,2013-07-21 08:42:00,
2013-07-21 01:47:00,62.3,54.2,29.90,NE,45,0.4,4.3,75,0.00,,,0.00,WUHU216HW,2013-07-21 08:47:00,
2013-07-21 01:52:00,62.1,54.5,29.90,North,0,0.9,4.3,76,0.00,,,0.00,WUHU216HW,2013-07-21 08:52:00,
2013-07-21 01:57:00,61.9,54.3,29.90,North,0,0.9,2.2,76,0.00,,,0.00,WUHU216HW,2013-07-21 08:57:00,
2013-07-21 02:02:00,61.7,54.1,29.90,North,0,1.6,2.0,76,0.00,,,0.00,WUHU216HW,2013-07-21 09:02:00,
2013-07-21 02:07:00,61.6,53.9,29.90,NNE,23,0.4,2.0,76,0.00,,,0.00,WUHU216HW,2013-07-21 09:07:00,
2013-07-21 02:12:00,61.4,54.1,29.90,SW,225,0.9,2.5,77,0.00,,,0.00,WUHU216HW,2013-07-21 09:12:00,
2013-07-21 02:17:00,61.0,53.8,29.90,NW,315,0.4,2.5,77,0.00,,,0.00,WUHU216HW,2013-07-21 09:17:00,
2013-07-21 02:22:00,60.8,54.4,29.90,NNE,23,0.9,2.2,79,0.00,,,0.00,WUHU216HW,2013-07-21 09:22:00,
2013-07-21 02:27:00,60.7,54.2,29.90,NNE,23,0.4,3.6,79,0.00,,,0.00,WUHU216HW,2013-07-21 09:27:00,
2013-07-21 02:32:00,60.5,54.0,29.90,North,0,1.1,3.6,79,0.00,,,0.00,WUHU216HW,2013-07-21 09:32:00,
2013-07-21 02:37:00,60.1,54.0,29.90,NNE,23,1.8,1.8,80,0.00,,,0.00,WUHU216HW,2013-07-21 09:37:00,
2013-07-21 02:42:00,60.1,54.0,29.90,NNE,23,0.4,1.8,80,0.00,,,0.00,WUHU216HW,2013-07-21 09:42:00,
2013-07-21 02:47:00,59.8,54.0,29.90,NNE,23,0.7,2.2,81,0.00,,,0.00,WUHU216HW,2013-07-21 09:47:00,
2013-07-21 02:52:00,59.6,53.8,29.90,NE,45,1.1,2.2,81,0.00,,,0.00,WUHU216HW,2013-07-21 09:52:00,
2013-07-21 02:57:00,59.6,53.8,29.90,NNE,23,1.1,1.8,81,0.00,,,0.00,WUHU216HW,2013-07-21 09:57:00,
2013-07-21 03:02:00,59.4,53.7,29.90,NNW,338,0.2,1.1,81,0.00,,,0.00,WUHU216HW,2013-07-21 10:02:00,
2013-07-21 03:07:00,59.4,53.7,29.90,NW,315,0.4,1.1,81,0.00,,,0.00,WUHU216HW,2013-07-21 10:07:00,
2013-07-21 03:12:00,59.2,53.5,29.90,NE,45,0.4,1.6,81,0.00,,,0.00,WUHU216HW,2013-07-21 10:12:00,
2013-07-21 03:17:00,59.0,53.3,29.90,NNE,23,0.9,1.6,81,0.00,,,0.00,WUHU216HW,2013-07-21 10:17:00,
2013-07-21 03:22:00,59.0,53.3,29.90,North,0,0.2,1.6,81,0.00,,,0.00,WUHU216HW,2013-07-21 10:22:00,
2013-07-21 03:27:00,58.9,53.1,29.90,NE,45,0.4,1.1,81,0.00,,,0.00,WUHU216HW,2013-07-21 10:27:00,
2013-07-21 03:32:00,58.7,52.9,29.90,North,0,0.4,1.1,81,0.00,,,0.00,WUHU216HW,2013-07-21 10:32:00,
2013-07-21 03:37:00,58.3,52.8,29.90,NE,45,1.1,1.1,82,0.00,,,0.00,WUHU216HW,2013-07-21 10:37:00,
2013-07-21 03:42:00,58.3,52.8,29.90,ENE,68,0.4,1.3,82,0.00,,,0.00,WUHU216HW,2013-07-21 10:42:00,
2013-07-21 03:47:00,58.1,52.7,29.89,North,0,0.2,1.8,82,0.00,,,0.00,WUHU216HW,2013-07-21 10:47:00,
2013-07-21 03:52:00,58.0,52.5,29.89,North,0,2.0,2.0,82,0.00,,,0.00,WUHU216HW,2013-07-21 10:52:00,
2013-07-21 03:57:00,57.8,52.7,29.89,North,0,1.1,2.0,83,0.00,,,0.00,WUHU216HW,2013-07-21 10:57:00,
2013-07-21 04:02:00,57.6,52.5,29.89,NNW,338,0.4,1.8,83,0.00,,,0.00,WUHU216HW,2013-07-21 11:02:00,
2013-07-21 04:07:00,57.4,52.3,29.89,NNE,23,0.0,1.3,83,0.00,,,0.00,WUHU216HW,2013-07-21 11:07:00,
2013-07-21 04:12:00,57.2,51.8,29.89,NNW,338,0.0,1.1,82,0.00,,,0.00,WUHU216HW,2013-07-21 11:12:00,
2013-07-21 04:17:00,57.2,52.1,29.89,North,0,0.2,1.3,83,0.00,,,0.00,WUHU216HW,2013-07-21 11:17:00,
2013-07-21 04:22:00,57.1,51.9,29.89,North,0,0.2,1.3,83,0.00,,,0.00,WUHU216HW,2013-07-21 11:22:00,
2013-07-21 04:27:00,56.9,51.4,29.89,NW,315,0.0,0.9,82,0.00,,,0.00,WUHU216HW,2013-07-21 11:27:00,
2013-07-21 04:32:00,56.9,51.4,29.89,NNE,23,0.0,0.4,82,0.00,,,0.00,WUHU216HW,2013-07-21 11:32:00,
2013-07-21 04:37:00,56.7,51.2,29.89,NNE,23,0.0,0.4,82,0.00,,,0.00,WUHU216HW,2013-07-21 11:37:00,
2013-07-21 04:42:00,56.7,51.0,29.90,NW,315,0.0,0.4,81,0.00,,,0.00,WUHU216HW,2013-07-21 11:42:00,
2013-07-21 04:47:00,56.5,50.8,29.90,North,0,0.2,0.7,81,0.00,,,0.00,WUHU216HW,2013-07-21 11:47:00,
2013-07-21 04:52:00,56.5,50.8,29.90,North,0,0.0,0.7,81,0.00,,,0.00,WUHU216HW,2013-07-21 11:52:00,
2013-07-21 04:57:00,56.3,50.6,29.90,North,0,0.2,0.2,81,0.00,,,0.00,WUHU216HW,2013-07-21 11:57:00,
2013-07-21 05:02:00,56.2,50.7,29.90,NE,45,0.0,1.1,82,0.00,,,0.00,WUHU216HW,2013-07-21 12:02:00,
2013-07-21 05:07:00,55.8,50.9,29.90,NNE,23,0.4,1.1,84,0.00,,,0.00,WUHU216HW,2013-07-21 12:07:00,
2013-07-21 05:12:00,55.6,50.5,29.90,North,0,0.4,1.1,83,0.00,,,0.00,WUHU216HW,2013-07-21 12:12:00,
2013-07-21 05:17:00,55.6,50.5,29.90,NNE,23,0.2,1.1,83,0.00,,,0.00,WUHU216HW,2013-07-21 12:17:00,
2013-07-21 05:22:00,55.6,50.1,29.91,North,0,0.0,0.9,82,0.00,,,0.00,WUHU216HW,2013-07-21 12:22:00,
2013-07-21 05:27:00,55.6,50.1,29.91,NW,315,0.0,0.9,82,0.00,,,0.00,WUHU216HW,2013-07-21 12:27:00,
2013-07-21 05:32:00,55.6,50.1,29.91,West,270,0.0,0.7,82,0.00,,,0.00,WUHU216HW,2013-07-21 12:32:00,
2013-07-21 05:37:00,55.6,50.8,29.91,NNW,338,0.2,1.8,84,0.00,,,0.00,WUHU216HW,2013-07-21 12:37:00,
2013-07-21 05:42:00,55.6,50.8,29.90,NNE,23,0.2,1.8,84,0.00,,,0.00,WUHU216HW,2013-07-21 12:42:00,
2013-07-21 05:47:00,55.4,50.0,29.91,NNE,23,0.0,0.7,82,0.00,,,0.00,WUHU216HW,2013-07-21 12:47:00,
2013-07-21 05:52:00,55.4,50.0,29.91,NNE,23,0.0,0.2,82,0.00,,,0.00,WUHU216HW,2013-07-21 12:52:00,
2013-07-21 05:57:00,55.4,50.0,29.91,North,0,0.0,0.2,82,0.00,,,0.00,WUHU216HW,2013-07-21 12:57:00,
2013-07-21 06:02:00,55.4,50.3,29.91,North,0,0.0,0.2,83,0.00,,,0.00,WUHU216HW,2013-07-21 13:02:00,
2013-07-21 06:07:00,55.3,50.5,29.91,NE,45,0.4,1.6,84,0.00,,,0.00,WUHU216HW,2013-07-21 13:07:00,
2013-07-21 06:12:00,55.1,50.6,29.91,North,0,1.1,2.0,85,0.00,,,0.00,WUHU216HW,2013-07-21 13:12:00,
2013-07-21 06:17:00,55.1,50.6,29.91,North,0,0.0,2.0,85,0.00,,,0.00,WUHU216HW,2013-07-21 13:17:00,
2013-07-21 06:22:00,55.1,50.6,29.91,NNE,23,0.2,1.6,85,0.00,,,0.00,WUHU216HW,2013-07-21 13:22:00,
2013-07-21 06:27:00,55.3,50.8,29.91,NNW,338,0.0,1.6,85,0.00,,,0.00,WUHU216HW,2013-07-21 13:27:00,
2013-07-21 06:32:00,55.4,50.9,29.91,ENE,68,0.4,2.9,85,0.00,,,0.00,WUHU216HW,2013-07-21 13:32:00,
2013-07-21 06:37:00,55.8,51.3,29.91,SW,225,1.1,2.9,85,0.00,,,0.00,WUHU216HW,2013-07-21 13:37:00,
2013-07-21 06:42:00,56.2,51.3,29.91,North,0,1.3,1.8,84,0.00,,,0.00,WUHU216HW,2013-07-21 13:42:00,
2013-07-21 06:47:00,56.5,51.7,29.91,NNE,23,1.1,2.0,84,0.00,,,0.00,WUHU216HW,2013-07-21 13:47:00,
2013-07-21 06:52:00,57.1,52.2,29.91,NNE,23,1.1,2.5,84,0.00,,,0.00,WUHU216HW,2013-07-21 13:52:00,
2013-07-21 06:57:00,57.8,52.7,29.91,NW,315,0.4,2.5,83,0.00,,,0.00,WUHU216HW,2013-07-21 13:57:00,
2013-07-21 07:02:00,58.3,52.6,29.91,ESE,113,0.4,1.8,81,0.00,,,0.00,WUHU216HW,2013-07-21 14:02:00,
2013-07-21 07:07:00,58.7,52.9,29.91,ESE,113,1.6,2.5,81,0.00,,,0.00,WUHU216HW,2013-07-21 14:07:00,
2013-07-21 07:12:00,59.6,53.1,29.91,NNE,23,1.1,2.5,79,0.00,,,0.00,WUHU216HW,2013-07-21 14:12:00,
2013-07-21 07:17:00,59.0,52.9,29.91,NW,315,1.6,3.6,80,0.00,,,0.00,WUHU216HW,2013-07-21 14:17:00,
2013-07-21 07:22:00,58.9,53.1,29.91,NNE,23,0.9,3.6,81,0.00,,,0.00,WUHU216HW,2013-07-21 14:22:00,
2013-07-21 07:27:00,58.5,52.8,29.91,NE,45,0.4,3.4,81,0.00,,,0.00,WUHU216HW,2013-07-21 14:27:00,
2013-07-21 07:32:00,58.7,52.9,29.91,WNW,293,1.6,3.1,81,0.00,,,0.00,WUHU216HW,2013-07-21 14:32:00,
2013-07-21 07:37:00,59.0,53.6,29.91,North,0,1.1,3.1,82,0.00,,,0.00,WUHU216HW,2013-07-21 14:37:00,
2013-07-21 07:42:00,59.0,53.3,29.91,West,270,0.7,3.4,81,0.00,,,0.00,WUHU216HW,2013-07-21 14:42:00,
2013-07-21 07:47:00,59.4,53.7,29.92,NE,45,2.5,3.4,81,0.00,,,0.00,WUHU216HW,2013-07-21 14:47:00,
2013-07-21 07:52:00,59.2,53.5,29.92,NNE,23,0.9,4.7,81,0.00,,,0.00,WUHU216HW,2013-07-21 14:52:00,
2013-07-21 07:57:00,59.6,53.8,29.92,NNE,23,1.1,4.7,81,0.00,,,0.00,WUHU216HW,2013-07-21 14:57:00,
2013-07-21 08:02:00,59.4,53.7,29.92,NNW,338,3.8,6.5,81,0.00,,,0.00,WUHU216HW,2013-07-21 15:02:00,
2013-07-21 08:07:00,59.6,53.8,29.92,North,0,3.1,6.5,81,0.00,,,0.00,WUHU216HW,2013-07-21 15:07:00,
2013-07-21 08:12:00,59.8,54.0,29.92,NNE,23,2.5,6.0,81,0.00,,,0.00,WUHU216HW,2013-07-21 15:12:00,
2013-07-21 08:17:00,60.1,54.0,29.92,NNW,338,3.6,3.8,80,0.00,,,0.00,WUHU216HW,2013-07-21 15:17:00,
2013-07-21 08:22:00,60.1,54.0,29.92,NE,45,4.3,6.5,80,0.00,,,0.00,WUHU216HW,2013-07-21 15:22:00,
2013-07-21 08:27:00,60.3,53.8,29.92,WSW,248,2.5,6.5,79,0.00,,,0.00,WUHU216HW,2013-07-21 15:27:00,
2013-07-21 08:32:00,60.5,54.4,29.92,NNE,23,2.0,4.3,80,0.00,,,0.00,WUHU216HW,2013-07-21 15:32:00,
2013-07-21 08:37:00,60.8,54.4,29.92,North,0,0.7,3.4,79,0.00,,,0.00,WUHU216HW,2013-07-21 15:37:00,
2013-07-21 08:42:00,60.8,54.4,29.93,ENE,68,1.1,4.0,79,0.00,,,0.00,WUHU216HW,2013-07-21 15:42:00,
2013-07-21 08:47:00,60.8,54.4,29.92,North,0,2.0,5.4,79,0.00,,,0.00,WUHU216HW,2013-07-21 15:47:00,
2013-07-21 08:52:00,60.8,54.4,29.92,WNW,293,0.9,5.4,79,0.00,,,0.00,WUHU216HW,2013-07-21 15:52:00,
2013-07-21 08:57:00,61.0,54.6,29.92,NNE,23,1.3,2.9,79,0.00,,,0.00,WUHU216HW,2013-07-21 15:57:00,
2013-07-21 09:02:00,61.4,54.8,29.92,SSE,158,0.4,2.7,79,0.00,,,0.00,WUHU216HW,2013-07-21 16:02:00,
2013-07-21 09:07:00,61.9,54.6,29.92,ENE,68,0.7,4.0,77,0.00,,,0.00,WUHU216HW,2013-07-21 16:07:00,
2013-07-21 09:12:00,62.3,54.9,29.92,NNE,23,1.3,4.0,77,0.00,,,0.00,WUHU216HW,2013-07-21 16:12:00,
2013-07-21 09:17:00,62.6,55.3,29.92,WSW,248,1.1,4.0,77,0.00,,,0.00,WUHU216HW,2013-07-21 16:17:00,
2013-07-21 09:22:00,63.2,55.4,29.92,NNE,23,1.6,3.4,76,0.00,,,0.00,WUHU216HW,2013-07-21 16:22:00,
2013-07-21 09:27:00,63.2,55.4,29.92,NNE,23,2.5,4.7,76,0.00,,,0.00,WUHU216HW,2013-07-21 16:27:00,
2013-07-21 09:32:00,63.2,55.4,29.92,NNE,23,2.5,4.7,76,0.00,,,0.00,WUHU216HW,2013-07-21 16:32:00,
2013-07-21 09:37:00,63.4,55.6,29.91,NE,45,2.5,4.3,76,0.00,,,0.00,WUHU216HW,2013-07-21 16:37:00,
2013-07-21 09:42:00,63.4,55.3,29.92,NNE,23,1.3,4.7,75,0.00,,,0.00,WUHU216HW,2013-07-21 16:42:00,
2013-07-21 09:47:00,64.1,56.0,29.91,SW,225,1.8,4.7,75,0.00,,,0.00,WUHU216HW,2013-07-21 16:47:00,
2013-07-21 09:52:00,64.4,56.3,29.91,NE,45,1.1,3.8,75,0.00,,,0.00,WUHU216HW,2013-07-21 16:52:00,
2013-07-21 09:57:00,64.8,56.4,29.91,NE,45,2.5,3.8,74,0.00,,,0.00,WUHU216HW,2013-07-21 16:57:00,
2013-07-21 10:02:00,65.0,56.5,29.91,SW,225,0.4,3.6,74,0.00,,,0.00,WUHU216HW,2013-07-21 17:02:00,
2013-07-21 10:07:00,65.2,56.7,29.91,NE,45,2.2,3.4,74,0.00,,,0.00,WUHU216HW,2013-07-21 17:07:00,
2013-07-21 10:12:00,65.2,56.3,29.91,NE,45,2.2,3.4,73,0.00,,,0.00,WUHU216HW,2013-07-21 17:12:00,
2013-07-21 10:17:00,65.3,56.8,29.91,ENE,68,0.2,4.5,74,0.00,,,0.00,WUHU216HW,2013-07-21 17:17:00,
2013-07-21 10:22:00,65.5,56.3,29.91,ENE,68,0.9,4.5,72,0.00,,,0.00,WUHU216HW,2013-07-21 17:22:00,
2013-07-21 10:27:00,65.9,57.0,29.91,NE,45,1.8,4.9,73,0.00,,,0.00,WUHU216HW,2013-07-21 17:27:00,
2013-07-21 10:32:00,66.4,56.3,29.91,North,0,2.2,4.9,70,0.00,,,0.00,WUHU216HW,2013-07-21 17:32:00,
2013-07-21 10:37:00,66.6,56.5,29.91,North,0,3.8,5.4,70,0.00,,,0.00,WUHU216HW,2013-07-21 17:37:00,
2013-07-21 10:42:00,67.1,56.6,29.91,NNE,23,3.4,5.4,69,0.00,,,0.00,WUHU216HW,2013-07-21 17:42:00,
2013-07-21 10:47:00,67.3,56.4,29.91,NE,45,2.7,4.0,68,0.00,,,0.00,WUHU216HW,2013-07-21 17:47:00,
2013-07-21 10:52:00,67.5,56.6,29.91,North,0,2.2,4.7,68,0.00,,,0.00,WUHU216HW,2013-07-21 17:52:00,
2013-07-21 10:57:00,67.5,56.2,29.91,ENE,68,4.7,4.7,67,0.00,,,0.00,WUHU216HW,2013-07-21 17:57:00,
2013-07-21 11:02:00,68.0,57.1,29.91,ESE,113,0.7,4.7,68,0.00,,,0.00,WUHU216HW,2013-07-21 18:02:00,
2013-07-21 11:07:00,68.0,57.1,29.91,North,0,1.1,5.6,68,0.00,,,0.00,WUHU216HW,2013-07-21 18:07:00,
2013-07-21 11:12:00,68.4,56.6,29.90,NNE,23,1.3,5.6,66,0.00,,,0.00,WUHU216HW,2013-07-21 18:12:00,
2013-07-21 11:17:00,68.8,56.5,29.90,North,0,0.4,2.7,65,0.00,,,0.00,WUHU216HW,2013-07-21 18:17:00,
2013-07-21 11:22:00,69.1,56.4,29.90,SW,225,1.6,2.7,64,0.00,,,0.00,WUHU216HW,2013-07-21 18:22:00,
2013-07-21 11:27:00,69.1,56.4,29.90,West,270,2.0,4.5,64,0.00,,,0.00,WUHU216HW,2013-07-21 18:27:00,
2013-07-21 11:32:00,69.8,57.1,29.90,North,0,0.4,4.5,64,0.00,,,0.00,WUHU216HW,2013-07-21 18:32:00,
2013-07-21 11:37:00,69.8,56.7,29.90,North,0,1.8,9.2,63,0.00,,,0.00,WUHU216HW,2013-07-21 18:37:00,
2013-07-21 11:42:00,70.2,57.1,29.89,NW,315,3.4,9.2,63,0.00,,,0.00,WUHU216HW,2013-07-21 18:42:00,
2013-07-21 11:47:00,70.6,57.0,29.89,NNE,23,1.3,4.9,62,0.00,,,0.00,WUHU216HW,2013-07-21 18:47:00,
2013-07-21 11:52:00,70.9,57.7,29.89,North,0,3.4,5.1,63,0.00,,,0.00,WUHU216HW,2013-07-21 18:52:00,
2013-07-21 11:57:00,71.5,57.8,29.89,NNE,23,0.9,5.1,62,0.00,,,0.00,WUHU216HW,2013-07-21 18:57:00,
2013-07-21 12:02:00,71.6,58.0,29.89,NE,45,1.8,5.1,62,0.00,,,0.00,WUHU216HW,2013-07-21 19:02:00,
2013-07-21 12:07:00,71.8,57.7,29.89,North,0,3.4,5.1,61,0.00,,,0.00,WUHU216HW,2013-07-21 19:07:00,
2013-07-21 12:12:00,72.2,57.5,29.89,NNE,23,3.1,5.1,60,0.00,,,0.00,WUHU216HW,2013-07-21 19:12:00,
2013-07-21 12:17:00,72.4,57.7,29.89,NNE,23,0.7,5.4,60,0.00,,,0.00,WUHU216HW,2013-07-21 19:17:00,
2013-07-21 12:22:00,72.9,57.7,29.89,North,0,1.1,5.4,59,0.00,,,0.00,WUHU216HW,2013-07-21 19:22:00,
2013-07-21 12:27:00,73.1,57.9,29.89,NE,45,3.1,6.3,59,0.00,,,0.00,WUHU216HW,2013-07-21 19:27:00,
2013-07-21 12:32:00,73.8,58.1,29.89,ENE,68,1.8,6.3,58,0.00,,,0.00,WUHU216HW,2013-07-21 19:32:00,
2013-07-21 12:37:00,74.5,58.2,29.89,NNE,23,3.6,4.7,57,0.00,,,0.00,WUHU216HW,2013-07-21 19:37:00,
2013-07-21 12:42:00,74.9,57.6,29.89,East,90,1.1,6.7,55,0.00,,,0.00,WUHU216HW,2013-07-21 19:42:00,
2013-07-21 12:47:00,75.2,58.5,29.89,WSW,248,2.7,8.1,56,0.00,,,0.00,WUHU216HW,2013-07-21 19:47:00,
2013-07-21 12:52:00,75.4,58.2,29.88,SE,135,1.3,8.1,55,0.00,,,0.00,WUHU216HW,2013-07-21 19:52:00,
2013-07-21 12:57:00,75.4,58.2,29.88,West,270,0.7,5.6,55,0.00,,,0.00,WUHU216HW,2013-07-21 19:57:00,
2013-07-21 13:02:00,76.0,58.2,29.89,NNE,23,3.4,5.6,54,0.00,,,0.00,WUHU216HW,2013-07-21 20:02:00,
2013-07-21 13:07:00,76.3,58.0,29.88,NNE,23,2.2,5.6,53,0.00,,,0.00,WUHU216HW,2013-07-21 20:07:00,
2013-07-21 13:12:00,76.7,58.2,29.88,NNE,23,4.0,6.9,53,0.00,,,0.00,WUHU216HW,2013-07-21 20:12:00,
2013-07-21 13:17:00,76.9,57.9,29.88,NNE,23,2.9,6.9,52,0.00,,,0.00,WUHU216HW,2013-07-21 20:17:00,
2013-07-21 13:22:00,77.0,58.6,29.88,NNE,23,3.1,4.7,53,0.00,,,0.00,WUHU216HW,2013-07-21 20:22:00,
2013-07-21 13:27:00,77.4,58.4,29.88,NNW,338,2.9,7.2,52,0.00,,,0.00,WUHU216HW,2013-07-21 20:27:00,
2013-07-21 13:32:00,78.1,59.0,29.88,NE,45,3.4,7.2,52,0.00,,,0.00,WUHU216HW,2013-07-21 20:32:00,
2013-07-21 13:37:00,78.5,58.9,29.88,North,0,3.1,7.2,51,0.00,,,0.00,WUHU216HW,2013-07-21 20:37:00,
2013-07-21 13:42:00,79.0,59.9,29.87,North,0,0.9,7.2,52,0.00,,,0.00,WUHU216HW,2013-07-21 20:42:00,
2013-07-21 13:47:00,79.0,58.9,29.87,NNW,338,1.8,6.5,50,0.00,,,0.00,WUHU216HW,2013-07-21 20:47:00,
2013-07-21 13:52:00,79.4,59.7,29.87,NNE,23,1.8,6.5,51,0.00,,,0.00,WUHU216HW,2013-07-21 20:52:00,
2013-07-21 13:57:00,79.4,58.6,29.87,NNE,23,6.7,6.7,49,0.00,,,0.00,WUHU216HW,2013-07-21 20:57:00,
2013-07-21 14:02:00,79.2,58.4,29.87,NW,315,2.5,6.9,49,0.00,,,0.00,WUHU216HW,2013-07-21 21:02:00,
2013-07-21 14:07:00,79.7,58.9,29.87,North,0,3.4,8.5,49,0.00,,,0.00,WUHU216HW,2013-07-21 21:07:00,
2013-07-21 14:12:00,79.6,59.3,29.87,NNE,23,3.1,8.5,50,0.00,,,0.00,WUHU216HW,2013-07-21 21:12:00,
2013-07-21 14:17:00,79.9,58.4,29.88,NNE,23,4.0,6.5,48,0.00,,,0.00,WUHU216HW,2013-07-21 21:17:00,
2013-07-21 14:22:00,80.6,59.7,29.87,North,0,1.8,5.6,49,0.00,,,0.00,WUHU216HW,2013-07-21 21:22:00,
2013-07-21 14:27:00,81.5,59.9,29.87,North,0,1.1,5.1,48,0.00,,,0.00,WUHU216HW,2013-07-21 21:27:00,
2013-07-21 14:32:00,82.4,59.5,29.87,NE,45,3.6,4.3,46,0.00,,,0.00,WUHU216HW,2013-07-21 21:32:00,
2013-07-21 14:37:00,81.9,57.8,29.87,NE,45,2.9,5.6,44,0.00,,,0.00,WUHU216HW,2013-07-21 21:37:00,
2013-07-21 14:42:00,81.7,58.9,29.87,NE,45,1.8,5.6,46,0.00,,,0.00,WUHU216HW,2013-07-21 21:42:00,
2013-07-21 14:47:00,82.3,58.7,29.87,North,0,1.8,4.7,45,0.00,,,0.00,WUHU216HW,2013-07-21 21:47:00,
2013-07-21 14:52:00,82.4,58.9,29.87,NW,315,1.8,6.3,45,0.00,,,0.00,WUHU216HW,2013-07-21 21:52:00,
2013-07-21 14:57:00,82.6,58.4,29.87,WNW,293,2.5,6.3,44,0.00,,,0.00,WUHU216HW,2013-07-21 21:57:00,
2013-07-21 15:02:00,83.0,59.4,29.86,NNE,23,0.7,6.3,45,0.00,,,0.00,WUHU216HW,2013-07-21 22:02:00,
2013-07-21 15:07:00,83.5,59.2,29.86,NNW,338,1.8,6.3,44,0.00,,,0.00,WUHU216HW,2013-07-21 22:07:00,
2013-07-21 15:12:00,83.5,58.7,29.86,NNW,338,3.4,7.8,43,0.00,,,0.00,WUHU216HW,2013-07-21 22:12:00,
2013-07-21 15:17:00,83.5,59.2,29.86,NW,315,0.9,7.8,44,0.00,,,0.00,WUHU216HW,2013-07-21 22:17:00,
2013-07-21 15:22:00,83.5,58.7,29.86,North,0,3.1,7.6,43,0.00,,,0.00,WUHU216HW,2013-07-21 22:22:00,
2013-07-21 15:27:00,83.3,58.5,29.86,North,0,2.9,7.6,43,0.00,,,0.00,WUHU216HW,2013-07-21 22:27:00,
2013-07-21 15:32:00,83.7,59.4,29.86,NNE,23,2.7,6.0,44,0.00,,,0.00,WUHU216HW,2013-07-21 22:32:00,
2013-07-21 15:37:00,83.9,60.2,29.86,NNE,23,2.5,5.4,45,0.00,,,0.00,WUHU216HW,2013-07-21 22:37:00,
2013-07-21 15:42:00,84.2,58.7,29.86,ENE,68,1.1,6.3,42,0.00,,,0.00,WUHU216HW,2013-07-21 22:42:00,
2013-07-21 15:47:00,83.9,58.3,29.86,NNW,338,5.1,6.5,42,0.00,,,0.00,WUHU216HW,2013-07-21 22:47:00,
2013-07-21 15:52:00,83.9,58.3,29.86,SSW,203,3.4,6.5,42,0.00,,,0.00,WUHU216HW,2013-07-21 22:52:00,
2013-07-21 15:57:00,84.2,58.7,29.86,North,0,1.6,4.7,42,0.00,,,0.00,WUHU216HW,2013-07-21 22:57:00,
2013-07-21 16:02:00,84.2,58.1,29.85,NE,45,3.4,5.1,41,0.00,,,0.00,WUHU216HW,2013-07-21 23:02:00,
2013-07-21 16:07:00,84.4,58.2,29.85,NNE,23,4.7,5.1,41,0.00,,,0.00,WUHU216HW,2013-07-21 23:07:00,
2013-07-21 16:12:00,84.6,59.1,29.85,West,270,0.4,4.7,42,0.00,,,0.00,WUHU216HW,2013-07-21 23:12:00,
2013-07-21 16:17:00,85.0,59.3,29.85,North,0,2.2,4.7,42,0.00,,,0.00,WUHU216HW,2013-07-21 23:17:00,
2013-07-21 16:22:00,85.1,58.9,29.84,NNE,23,2.5,5.6,41,0.00,,,0.00,WUHU216HW,2013-07-21 23:22:00,
2013-07-21 16:27:00,85.3,57.6,29.84,NE,45,2.7,5.6,39,0.00,,,0.00,WUHU216HW,2013-07-21 23:27:00,
2013-07-21 16:32:00,85.1,58.9,29.84,NW,315,5.4,7.6,41,0.00,,,0.00,WUHU216HW,2013-07-21 23:32:00,
2013-07-21 16:37:00,85.3,57.6,29.84,NNE,23,5.6,7.6,39,0.00,,,0.00,WUHU216HW,2013-07-21 23:37:00,
2013-07-21 16:42:00,85.1,57.4,29.83,SSE,158,3.1,7.6,39,0.00,,,0.00,WUHU216HW,2013-07-21 23:42:00,
2013-07-21 16:47:00,85.0,57.2,29.84,NW,315,5.1,7.6,39,0.00,,,0.00,WUHU216HW,2013-07-21 23:47:00,
2013-07-21 16:52:00,85.0,58.1,29.83,NNE,23,5.4,6.0,40,0.00,,,0.00,WUHU216HW,2013-07-21 23:52:00,
2013-07-21 16:57:00,85.1,58.2,29.83,NW,315,0.9,6.0,40,0.00,,,0.00,WUHU216HW,2013-07-21 23:57:00,
2013-07-21 17:02:00,85.3,58.4,29.83,North,0,3.1,5.8,40,0.00,,,0.00,WUHU216HW,2013-07-22 00:02:00,
2013-07-21 17:07:00,85.5,59.2,29.83,NNE,23,1.1,5.8,41,0.00,,,0.00,WUHU216HW,2013-07-22 00:07:00,
2013-07-21 17:12:00,85.5,58.6,29.83,North,0,4.9,6.3,40,0.00,,,0.00,WUHU216HW,2013-07-22 00:12:00,
2013-07-21 17:17:00,85.3,58.4,29.83,North,0,2.7,6.3,40,0.00,,,0.00,WUHU216HW,2013-07-22 00:17:00,
2013-07-21 17:22:00,85.5,58.6,29.83,NE,45,2.5,5.8,40,0.00,,,0.00,WUHU216HW,2013-07-22 00:22:00,
2013-07-21 17:27:00,85.7,59.3,29.83,WNW,293,2.9,4.5,41,0.00,,,0.00,WUHU216HW,2013-07-22 00:27:00,
2013-07-21 17:32:00,85.7,58.7,29.83,North,0,3.4,5.4,40,0.00,,,0.00,WUHU216HW,2013-07-22 00:32:00,
2013-07-21 17:37:00,85.5,59.2,29.83,NNE,23,4.3,5.4,41,0.00,,,0.00,WUHU216HW,2013-07-22 00:37:00,
2013-07-21 17:42:00,85.3,59.1,29.82,NNE,23,4.0,5.6,41,0.00,,,0.00,WUHU216HW,2013-07-22 00:42:00,
2013-07-21 17:47:00,85.3,59.1,29.82,ESE,113,1.8,5.6,41,0.00,,,0.00,WUHU216HW,2013-07-22 00:47:00,
2013-07-21 17:52:00,85.3,59.1,29.82,NNW,338,4.7,5.6,41,0.00,,,0.00,WUHU216HW,2013-07-22 00:52:00,
2013-07-21 17:57:00,85.1,58.9,29.82,WSW,248,3.4,5.6,41,0.00,,,0.00,WUHU216HW,2013-07-22 00:57:00,
2013-07-21 18:02:00,85.3,59.7,29.82,NE,45,1.3,6.0,42,0.00,,,0.00,WUHU216HW,2013-07-22 01:02:00,
2013-07-21 18:07:00,85.1,58.9,29.82,NNE,23,5.1,6.0,41,0.00,,,0.00,WUHU216HW,2013-07-22 01:07:00,
2013-07-21 18:12:00,85.1,59.5,29.82,North,0,2.5,5.1,42,0.00,,,0.00,WUHU216HW,2013-07-22 01:12:00,
2013-07-21 18:17:00,85.0,59.3,29.82,NE,45,4.5,5.4,42,0.00,,,0.00,WUHU216HW,2013-07-22 01:17:00,
2013-07-21 18:22:00,84.8,59.1,29.82,NE,45,1.6,5.4,42,0.00,,,0.00,WUHU216HW,2013-07-22 01:22:00,
2013-07-21 18:27:00,84.8,59.1,29.82,NNE,23,3.1,4.5,42,0.00,,,0.00,WUHU216HW,2013-07-22 01:27:00,
2013-07-21 18:32:00,84.8,59.8,29.82,SSW,203,1.1,4.3,43,0.00,,,0.00,WUHU216HW,2013-07-22 01:32:00,
2013-07-21 18:37:00,84.6,60.3,29.82,NNE,23,2.0,4.3,44,0.00,,,0.00,WUHU216HW,2013-07-22 01:37:00,
2013-07-21 18:42:00,84.8,60.4,29.82,NNW,338,2.2,4.3,44,0.00,,,0.00,WUHU216HW,2013-07-22 01:42:00,
2013-07-21 18:47:00,84.6,60.3,29.82,ENE,68,2.5,4.7,44,0.00,,,0.00,WUHU216HW,2013-07-22 01:47:00,
2013-07-21 18:52:00,84.4,60.1,29.82,WSW,248,0.9,4.7,44,0.00,,,0.00,WUHU216HW,2013-07-22 01:52:00,
2013-07-21 18:57:00,84.2,59.9,29.82,North,0,2.7,5.4,44,0.00,,,0.00,WUHU216HW,2013-07-22 01:57:00,
2013-07-21 19:02:00,84.1,60.4,29.82,NE,45,1.1,5.6,45,0.00,,,0.00,WUHU216HW,2013-07-22 02:02:00,
2013-07-21 19:07:00,84.1,60.4,29.82,North,0,2.9,5.6,45,0.00,,,0.00,WUHU216HW,2013-07-22 02:07:00,
2013-07-21 19:12:00,83.9,60.2,29.82,NE,45,0.4,4.0,45,0.00,,,0.00,WUHU216HW,2013-07-22 02:12:00,
2013-07-21 19:17:00,83.9,60.8,29.82,NW,315,0.4,4.0,46,0.00,,,0.00,WUHU216HW,2013-07-22 02:17:00,
2013-07-21 19:22:00,83.9,60.8,29.82,NNE,23,2.0,2.7,46,0.00,,,0.00,WUHU216HW,2013-07-22 02:22:00,
2013-07-21 19:27:00,83.5,60.5,29.82,East,90,0.7,4.0,46,0.00,,,0.00,WUHU216HW,2013-07-22 02:27:00,
2013-07-21 19:32:00,83.3,60.9,29.82,West,270,1.6,4.9,47,0.00,,,0.00,WUHU216HW,2013-07-22 02:32:00,
2013-07-21 19:37:00,83.3,60.9,29.82,WNW,293,1.6,4.9,47,0.00,,,0.00,WUHU216HW,2013-07-22 02:37:00,
2013-07-21 19:42:00,83.2,61.4,29.82,NNE,23,1.1,4.7,48,0.00,,,0.00,WUHU216HW,2013-07-22 02:42:00,
2013-07-21 19:47:00,83.0,61.2,29.82,North,0,1.1,4.7,48,0.00,,,0.00,WUHU216HW,2013-07-22 02:47:00,
2013-07-21 19:52:00,82.8,61.0,29.82,NNE,23,2.9,2.9,48,0.00,,,0.00,WUHU216HW,2013-07-22 02:52:00,
2013-07-21 19:57:00,82.4,61.3,29.82,NNE,23,2.5,3.4,49,0.00,,,0.00,WUHU216HW,2013-07-22 02:57:00,
2013-07-21 20:02:00,82.3,61.7,29.83,South,180,0.9,3.4,50,0.00,,,0.00,WUHU216HW,2013-07-22 03:02:00,
2013-07-21 20:07:00,82.1,61.6,29.83,NNE,23,1.1,3.4,50,0.00,,,0.00,WUHU216HW,2013-07-22 03:07:00,
2013-07-21 20:12:00,81.5,61.7,29.83,NNE,23,1.8,4.0,51,0.00,,,0.00,WUHU216HW,2013-07-22 03:12:00,
2013-07-21 20:17:00,81.4,61.5,29.83,ENE,68,0.7,4.0,51,0.00,,,0.00,WUHU216HW,2013-07-22 03:17:00,
2013-07-21 20:22:00,81.0,61.7,29.83,West,270,1.1,4.7,52,0.00,,,0.00,WUHU216HW,2013-07-22 03:22:00,
2013-07-21 20:27:00,80.6,61.8,29.83,West,270,0.4,4.7,53,0.00,,,0.00,WUHU216HW,2013-07-22 03:27:00,
2013-07-21 20:32:00,80.1,61.4,29.83,WSW,248,1.6,6.5,53,0.00,,,0.00,WUHU216HW,2013-07-22 03:32:00,
2013-07-21 20:38:00,79.6,61.4,29.83,North,0,1.6,6.5,54,0.00,,,0.00,WUHU216HW,2013-07-22 03:38:00,
2013-07-21 20:43:00,79.4,61.3,29.83,NNE,23,0.4,3.6,54,0.00,,,0.00,WUHU216HW,2013-07-22 03:43:00,
2013-07-21 20:48:00,79.0,60.9,29.83,NNE,23,2.9,3.8,54,0.00,,,0.00,WUHU216HW,2013-07-22 03:48:00,
2013-07-21 20:53:00,78.7,61.1,29.83,ENE,68,2.5,3.8,55,0.00,,,0.00,WUHU216HW,2013-07-22 03:53:00,
2013-07-21 20:58:00,78.3,60.8,29.83,NNW,338,1.8,4.0,55,0.00,,,0.00,WUHU216HW,2013-07-22 03:58:00,
2013-07-21 21:01:00,78.1,60.6,29.83,North,0,1.1,4.0,55,0.00,,,0.00,WUHU216HW,2013-07-22 04:01:00,
2013-07-21 21:06:00,77.8,60.8,29.83,NNE,23,0.7,3.8,56,0.00,,,0.00,WUHU216HW,2013-07-22 04:06:00,
2013-07-21 21:11:00,77.4,60.4,29.84,North,0,1.8,3.4,56,0.00,,,0.00,WUHU216HW,2013-07-22 04:11:00,
2013-07-21 21:16:00,77.2,60.3,29.84,NW,315,1.8,3.4,56,0.00,,,0.00,WUHU216HW,2013-07-22 04:16:00,
2013-07-21 21:21:00,76.9,60.4,29.84,North,0,1.3,2.0,57,0.00,,,0.00,WUHU216HW,2013-07-22 04:21:00,
2013-07-21 21:26:00,76.7,60.3,29.85,SE,135,0.2,2.2,57,0.00,,,0.00,WUHU216HW,2013-07-22 04:26:00,
2013-07-21 21:31:00,76.3,60.5,29.85,NNW,338,0.7,2.2,58,0.00,,,0.00,WUHU216HW,2013-07-22 04:31:00,
2013-07-21 21:36:00,76.0,60.1,29.85,WSW,248,1.3,3.4,58,0.00,,,0.00,WUHU216HW,2013-07-22 04:36:00,
2013-07-21 21:41:00,75.6,60.3,29.85,North,0,2.0,3.4,59,0.00,,,0.00,WUHU216HW,2013-07-22 04:41:00,
2013-07-21 21:46:00,75.2,59.9,29.85,North,0,1.1,4.3,59,0.00,,,0.00,WUHU216HW,2013-07-22 04:46:00,
2013-07-21 21:51:00,75.1,60.3,29.85,NNE,23,0.7,4.3,60,0.00,,,0.00,WUHU216HW,2013-07-22 04:51:00,
2013-07-21 21:56:00,74.7,59.9,29.85,North,0,0.0,3.1,60,0.00,,,0.00,WUHU216HW,2013-07-22 04:56:00,
2013-07-21 22:01:00,74.5,60.2,29.85,NNW,338,2.2,2.2,61,0.00,,,0.00,WUHU216HW,2013-07-22 05:01:00,
2013-07-21 22:06:00,74.2,59.9,29.85,North,0,0.4,2.2,61,0.00,,,0.00,WUHU216HW,2013-07-22 05:06:00,
2013-07-21 22:11:00,73.8,60.0,29.86,North,0,0.4,2.0,62,0.00,,,0.00,WUHU216HW,2013-07-22 05:11:00,
2013-07-21 22:16:00,73.4,59.6,29.86,North,0,1.6,1.6,62,0.00,,,0.00,WUHU216HW,2013-07-22 05:16:00,
2013-07-21 22:21:00,73.1,59.7,29.86,NNE,23,0.2,2.5,63,0.00,,,0.00,WUHU216HW,2013-07-22 05:21:00,
2013-07-21 22:26:00,72.9,59.9,29.86,North,0,1.1,2.5,64,0.00,,,0.00,WUHU216HW,2013-07-22 05:26:00,
2013-07-21 22:31:00,72.7,60.2,29.86,NNW,338,1.8,1.8,65,0.00,,,0.00,WUHU216HW,2013-07-22 05:31:00,
2013-07-21 22:36:00,72.4,60.0,29.86,North,0,0.7,2.9,65,0.00,,,0.00,WUHU216HW,2013-07-22 05:36:00,
2013-07-21 22:41:00,72.0,59.6,29.86,North,0,0.0,2.9,65,0.00,,,0.00,WUHU216HW,2013-07-22 05:41:00,
2013-07-21 22:46:00,71.6,59.7,29.86,NNW,338,0.0,2.5,66,0.00,,,0.00,WUHU216HW,2013-07-22 05:46:00,
2013-07-21 22:51:00,71.5,59.5,29.86,NNE,23,0.4,2.5,66,0.00,,,0.00,WUHU216HW,2013-07-22 05:51:00,
2013-07-21 22:56:00,71.3,59.3,29.86,North,0,0.4,1.6,66,0.00,,,0.00,WUHU216HW,2013-07-22 05:56:00,
2013-07-21 23:01:00,70.9,58.5,29.86,NNE,23,1.1,2.5,65,0.00,,,0.00,WUHU216HW,2013-07-22 06:01:00,
2013-07-21 23:06:00,70.9,58.5,29.86,NNW,338,0.0,2.5,65,0.00,,,0.00,WUHU216HW,2013-07-22 06:06:00,
2013-07-21 23:11:00,70.6,58.6,29.86,North,0,1.6,1.6,66,0.00,,,0.00,WUHU216HW,2013-07-22 06:11:00,
2013-07-21 23:16:00,70.6,58.6,29.86,North,0,1.1,1.6,66,0.00,,,0.00,WUHU216HW,2013-07-22 06:16:00,
2013-07-21 23:21:00,70.2,58.7,29.86,NNE,23,1.3,2.7,67,0.00,,,0.00,WUHU216HW,2013-07-22 06:21:00,
2013-07-21 23:26:00,70.2,59.1,29.86,North,0,1.1,2.7,68,0.00,,,0.00,WUHU216HW,2013-07-22 06:26:00,
2013-07-21 23:31:00,69.8,58.8,29.86,South,180,0.4,3.1,68,0.00,,,0.00,WUHU216HW,2013-07-22 06:31:00,
2013-07-21 23:36:00,69.8,59.1,29.87,North,0,1.1,3.1,69,0.00,,,0.00,WUHU216HW,2013-07-22 06:36:00,
2013-07-21 23:41:00,69.5,58.9,29.86,NNW,338,1.3,1.8,69,0.00,,,0.00,WUHU216HW,2013-07-22 06:41:00,
2013-07-21 23:46:00,69.5,58.9,29.86,NNE,23,1.1,1.6,69,0.00,,,0.00,WUHU216HW,2013-07-22 06:46:00,
2013-07-21 23:51:00,69.3,59.1,29.86,ESE,113,0.7,2.5,70,0.00,,,0.00,WUHU216HW,2013-07-22 06:51:00,
2013-07-21 23:56:00,69.1,58.5,29.86,NW,315,1.1,2.7,69,0.00,,,0.00,WUHU216HW,2013-07-22 06:56:00,